Regional Weather Roundup
Issued by NWS

Home | Current Version | Previous Version | Text Only | Print | Product List | Glossary Off
Versions: 1 2 3 4 5 6 7 8 9 10 11 12 13 14 15 16 17 18 19 20 21 22 23 24 25 26 27 28 29 30 31 32 33 34 35 36 37 38 39 40 41 42 43 44 45 46 47 48 49 50

000
ASUS43 KBIS 150520
RWRND

NORTH DAKOTA REGIONAL WEATHER ROUNDUP
NATIONAL WEATHER SERVICE BISMARCK ND
1200 AM CDT MON SEP 15 2014

NOTE: "FAIR" INDICATES FEW OR NO CLOUDS BELOW 12,000 FEET WITH NO
SIGNIFICANT WEATHER AND/OR OBSTRUCTIONS TO VISIBILITY.


NDZ001>003-009>011-017-150600-
NORTHWEST NORTH DAKOTA

CITY           SKY/WX    TMP DP  RH WIND       PRES   REMARKS
WILLISTON      CLOUDY    44  33  65 CALM      30.21R
MINOT          CLEAR     40  33  76 SW6       30.19R
MINOT AFB      CLEAR     36  33  90 SW8       30.19R
$$

NDZ018>021-031>035-040>046-150600-
SOUTHWEST NORTH DAKOTA

CITY           SKY/WX    TMP DP  RH WIND       PRES   REMARKS
BISMARCK       MOCLDY    45  37  73 CALM      30.22R
DICKINSON      MOCLDY    45  36  70 SE6       30.20S
GARRISON         N/A     38  34  85 CALM      30.21R
HETTINGER ARPT CLOUDY    45  37  73 E7        30.23R
$$

NDZ004>008-012>016-024-026-027-054-150600-
NORTHEAST NORTH DAKOTA

CITY           SKY/WX    TMP DP  RH WIND       PRES   REMARKS
GRAND FORKS    CLOUDY    48  44  86 NW3       30.17R
GRND FRKS AFB  CLOUDY    47  45  92 NW3       30.17R
DEVILS LAKE    PTCLDY    46  36  66 NW6       30.17S
$$

NDZ022-023-025-028>030-036>039-047>053-150600-
SOUTHEAST NORTH DAKOTA

CITY           SKY/WX    TMP DP  RH WIND       PRES   REMARKS
FARGO          CLOUDY    50  43  77 W3        30.17R
JAMESTOWN      CLOUDY    48  44  86 CALM      30.18S
$$




USA.gov is the U.S. government's official web portal to all federal, state and local government web resources and services.